TimeEST,TemperatureF,Dew PointF,Humidity,Sea Level PressureIn,VisibilityMPH,Wind Direction,Wind SpeedMPH,Gust SpeedMPH,PrecipitationIn,Events,Conditions,WindDirDegrees,DateUTC
12:54 AM,34.0,27.0,75,30.52,10.0,Calm,Calm,-,N/A,,Clear,0,2013-01-19 05:54:00
1:54 AM,32.0,28.9,88,30.53,10.0,Calm,Calm,-,N/A,,Clear,0,2013-01-19 06:54:00
2:54 AM,32.0,28.9,88,30.51,10.0,Calm,Calm,-,N/A,,Clear,0,2013-01-19 07:54:00
3:54 AM,33.1,30.0,89,30.50,10.0,Calm,Calm,-,N/A,,Clear,0,2013-01-19 08:54:00
4:54 AM,30.9,28.9,92,30.49,10.0,Calm,Calm,-,N/A,,Clear,0,2013-01-19 09:54:00
5:54 AM,30.0,27.0,88,30.49,10.0,Calm,Calm,-,N/A,,Clear,0,2013-01-19 10:54:00
7:02 AM,30.2,26.6,86,30.49,2.5,Calm,Calm,-,N/A,,Clear,0,2013-01-19 12:02:00
7:11 AM,30.2,26.6,86,30.49,9.0,Calm,Calm,-,N/A,,Clear,0,2013-01-19 12:11:00
7:28 AM,28.4,26.6,93,30.49,1.2,Calm,Calm,-,N/A,,Clear,0,2013-01-19 12:28:00
7:35 AM,30.2,28.4,93,30.49,0.8,Calm,Calm,-,N/A,,Clear,0,2013-01-19 12:35:00
7:40 AM,30.2,28.4,93,30.49,2.5,Calm,Calm,-,N/A,,Clear,0,2013-01-19 12:40:00
7:47 AM,32.0,30.2,93,30.50,5.0,Calm,Calm,-,N/A,,Clear,0,2013-01-19 12:47:00
7:54 AM,33.1,30.9,92,30.50,4.0,Calm,Calm,-,N/A,,Clear,0,2013-01-19 12:54:00
8:54 AM,39.9,34.0,79,30.50,10.0,North,3.5,-,N/A,,Clear,360,2013-01-19 13:54:00
9:54 AM,44.1,27.0,51,30.51,10.0,Variable,3.5,-,N/A,,Scattered Clouds,0,2013-01-19 14:54:00
10:54 AM,48.0,24.1,39,30.48,10.0,Variable,3.5,-,N/A,,Partly Cloudy,0,2013-01-19 15:54:00
11:54 AM,52.0,27.0,38,30.43,10.0,Calm,Calm,-,N/A,,Partly Cloudy,0,2013-01-19 16:54:00
12:54 PM,55.9,30.9,39,30.38,10.0,Variable,3.5,-,N/A,,Clear,0,2013-01-19 17:54:00
1:54 PM,60.1,36.0,41,30.34,10.0,Calm,Calm,-,N/A,,Clear,0,2013-01-19 18:54:00
2:54 PM,61.0,37.9,42,30.30,10.0,SSW,4.6,-,N/A,,Clear,210,2013-01-19 19:54:00
3:54 PM,61.0,39.0,44,30.28,10.0,SW,5.8,-,N/A,,Clear,220,2013-01-19 20:54:00
4:54 PM,57.9,39.0,49,30.27,10.0,SSW,4.6,-,N/A,,Clear,200,2013-01-19 21:54:00
5:54 PM,53.1,41.0,64,30.27,10.0,Calm,Calm,-,N/A,,Clear,0,2013-01-19 22:54:00
6:54 PM,50.0,42.1,74,30.27,10.0,Calm,Calm,-,N/A,,Clear,0,2013-01-19 23:54:00
7:54 PM,48.0,42.1,80,30.27,10.0,Calm,Calm,-,N/A,,Clear,0,2013-01-20 00:54:00
8:54 PM,45.0,41.0,86,30.26,10.0,Calm,Calm,-,N/A,,Clear,0,2013-01-20 01:54:00
9:54 PM,42.1,39.0,89,30.25,10.0,Calm,Calm,-,N/A,,Clear,0,2013-01-20 02:54:00
10:54 PM,41.0,37.9,89,30.22,10.0,Calm,Calm,-,N/A,,Clear,0,2013-01-20 03:54:00
11:11 PM,42.8,41.0,93,30.22,1.5,Calm,Calm,-,N/A,,Clear,0,2013-01-20 04:11:00
11:17 PM,41.0,39.2,93,30.21,0.5,Calm,Calm,-,N/A,Fog,Fog,0,2013-01-20 04:17:00
11:22 PM,41.0,39.2,93,30.21,1.0,Calm,Calm,-,N/A,,Clear,0,2013-01-20 04:22:00
11:26 PM,42.8,39.2,87,30.21,4.0,Calm,Calm,-,N/A,,Clear,0,2013-01-20 04:26:00
11:54 PM,41.0,39.0,93,30.21,8.0,Calm,Calm,-,N/A,,Clear,0,2013-01-20 04:54:00